Year,Month,Day,Hour,Minute,Value (Times are PST for temperature in C)
2009,09,21,00,00,8.30
2009,09,21,00,01,8.40
2009,09,21,00,02,8.40
2009,09,21,00,03,8.40
2009,09,21,00,04,8.50
2009,09,21,00,05,8.60
2009,09,21,00,06,8.60
2009,09,21,00,07,8.60
2009,09,21,00,08,8.60
2009,09,21,00,09,8.60
2009,09,21,00,10,8.60
2009,09,21,00,11,8.60
2009,09,21,00,12,8.60
2009,09,21,00,18,8.50
2009,09,21,00,19,8.50
2009,09,21,00,20,8.50
2009,09,21,00,21,8.50
2009,09,21,00,22,8.50
2009,09,21,00,23,8.50
2009,09,21,00,24,8.50
2009,09,21,00,25,8.50
2009,09,21,00,26,8.50
2009,09,21,00,27,8.40
2009,09,21,00,28,8.40
2009,09,21,00,29,8.40
2009,09,21,00,30,8.40
2009,09,21,00,31,8.30
2009,09,21,00,32,8.30
2009,09,21,00,33,8.30
2009,09,21,00,34,8.30
2009,09,21,00,35,8.30
2009,09,21,00,36,8.30
2009,09,21,00,37,8.30
2009,09,21,00,38,8.20
2009,09,21,00,39,8.20
2009,09,21,00,40,8.20
2009,09,21,00,41,8.20
2009,09,21,00,42,8.20
2009,09,21,00,43,8.20
2009,09,21,00,44,8.10
2009,09,21,00,45,8.10
2009,09,21,00,46,8.10
2009,09,21,00,47,8.10
2009,09,21,00,48,8.10
2009,09,21,00,49,8.10
2009,09,21,00,50,8.10
2009,09,21,00,51,8.20
2009,09,21,00,52,8.20
2009,09,21,00,53,8.20
2009,09,21,00,54,8.20
2009,09,21,00,55,8.20
2009,09,21,00,56,8.20
2009,09,21,00,57,8.20
2009,09,21,00,58,8.20
2009,09,21,00,59,8.20
2009,09,21,01,00,8.20
2009,09,21,01,01,8.20
2009,09,21,01,02,8.20
2009,09,21,01,03,8.20
2009,09,21,01,04,8.20
2009,09,21,01,05,8.20
2009,09,21,01,06,8.20
2009,09,21,01,07,8.20
2009,09,21,01,08,8.20
2009,09,21,01,09,8.20
2009,09,21,01,10,8.10
2009,09,21,01,11,8.10
2009,09,21,01,12,8.10
2009,09,21,01,13,8.10
2009,09,21,01,14,8.10
2009,09,21,01,15,8.10
2009,09,21,01,16,8.10
2009,09,21,01,17,8.10
2009,09,21,01,18,8.00
2009,09,21,01,19,8.00
2009,09,21,01,20,8.00
2009,09,21,01,21,7.90
2009,09,21,01,22,7.90
2009,09,21,01,23,7.90
2009,09,21,01,24,7.90
2009,09,21,01,25,7.90
2009,09,21,01,26,7.90
2009,09,21,01,27,7.90
2009,09,21,01,28,7.90
2009,09,21,01,29,7.90
2009,09,21,01,30,7.80
2009,09,21,01,31,7.80
2009,09,21,01,32,7.80
2009,09,21,01,33,7.80
2009,09,21,01,34,7.80
2009,09,21,01,35,7.80
2009,09,21,01,36,7.80
2009,09,21,01,37,7.80
2009,09,21,01,38,7.80
2009,09,21,01,39,7.80
2009,09,21,01,40,7.80
2009,09,21,01,41,7.80
2009,09,21,01,42,7.80
2009,09,21,01,43,7.80
2009,09,21,01,44,7.70
2009,09,21,01,45,7.70
2009,09,21,01,46,7.70
2009,09,21,01,47,7.70
2009,09,21,01,48,7.70
2009,09,21,01,49,7.70
2009,09,21,01,50,7.70
2009,09,21,01,51,7.70
2009,09,21,01,52,7.80
2009,09,21,01,53,7.80
2009,09,21,01,54,7.80
2009,09,21,01,55,7.70
2009,09,21,01,56,7.70
2009,09,21,01,57,7.70
2009,09,21,01,58,7.70
2009,09,21,01,59,7.70
2009,09,21,02,00,7.70
2009,09,21,02,01,7.70
2009,09,21,02,02,7.70
2009,09,21,02,03,7.70
2009,09,21,02,04,7.70
2009,09,21,02,05,7.70
2009,09,21,02,06,7.70
2009,09,21,02,07,7.70
2009,09,21,02,08,7.70
2009,09,21,02,09,7.70
2009,09,21,02,10,7.70
2009,09,21,02,11,7.70
2009,09,21,02,12,7.70
2009,09,21,02,13,7.70
2009,09,21,02,14,7.70
2009,09,21,02,15,7.70
2009,09,21,02,16,7.70
2009,09,21,02,17,7.70
2009,09,21,02,18,7.70
2009,09,21,02,19,7.70
2009,09,21,02,20,7.70
2009,09,21,02,21,7.70
2009,09,21,02,22,7.70
2009,09,21,02,23,7.70
2009,09,21,02,24,7.70
2009,09,21,02,25,7.70
2009,09,21,02,26,7.60
2009,09,21,02,27,7.60
2009,09,21,02,28,7.60
2009,09,21,02,29,7.60
2009,09,21,02,30,7.60
2009,09,21,02,31,7.60
2009,09,21,02,32,7.60
2009,09,21,02,33,7.60
2009,09,21,02,34,7.50
2009,09,21,02,35,7.50
2009,09,21,02,36,7.50
2009,09,21,02,37,7.50
2009,09,21,02,38,7.40
2009,09,21,02,39,7.40
2009,09,21,02,40,7.40
2009,09,21,02,41,7.40
2009,09,21,02,42,7.40
2009,09,21,02,43,7.40
2009,09,21,02,44,7.40
2009,09,21,02,45,7.40
2009,09,21,02,46,7.40
2009,09,21,02,47,7.40
2009,09,21,02,48,7.40
2009,09,21,02,49,7.40
2009,09,21,02,50,7.40
2009,09,21,02,51,7.40
2009,09,21,02,52,7.40
2009,09,21,02,53,7.40
2009,09,21,02,54,7.40
2009,09,21,02,55,7.30
2009,09,21,02,56,7.30
2009,09,21,02,57,7.30
2009,09,21,02,58,7.30
2009,09,21,02,59,7.30
2009,09,21,03,00,7.30
2009,09,21,03,01,7.30
2009,09,21,03,02,7.30
2009,09,21,03,03,7.20
2009,09,21,03,04,7.20
2009,09,21,03,05,7.20
2009,09,21,03,06,7.20
2009,09,21,03,07,7.20
2009,09,21,03,08,7.20
2009,09,21,03,09,7.20
2009,09,21,03,10,7.20
2009,09,21,03,11,7.20
2009,09,21,03,12,7.20
2009,09,21,03,13,7.20
2009,09,21,03,14,7.20
2009,09,21,03,15,7.20
2009,09,21,03,16,7.20
2009,09,21,03,17,7.20
2009,09,21,03,18,7.20
2009,09,21,03,19,7.20
2009,09,21,03,20,7.20
2009,09,21,03,21,7.20
2009,09,21,03,22,7.20
2009,09,21,03,23,7.20
2009,09,21,03,24,7.10
2009,09,21,03,25,7.10
2009,09,21,03,26,7.20
2009,09,21,03,27,7.20
2009,09,21,03,28,7.20
2009,09,21,03,29,7.20
2009,09,21,03,30,7.20
2009,09,21,03,31,7.20
2009,09,21,03,32,7.20
2009,09,21,03,33,7.20
2009,09,21,03,34,7.20
2009,09,21,03,35,7.20
2009,09,21,03,36,7.20
2009,09,21,03,37,7.20
2009,09,21,03,38,7.20
2009,09,21,03,39,7.20
2009,09,21,03,40,7.10
2009,09,21,03,41,7.10
2009,09,21,03,42,7.10
2009,09,21,03,43,7.10
2009,09,21,03,44,7.10
2009,09,21,03,45,7.10
2009,09,21,03,46,7.10
2009,09,21,03,47,7.10
2009,09,21,03,48,7.00
2009,09,21,03,49,7.00
2009,09,21,03,50,7.00
2009,09,21,03,51,7.00
2009,09,21,03,52,7.00
2009,09,21,03,53,7.00
2009,09,21,03,54,6.90
2009,09,21,03,55,6.90
2009,09,21,03,56,6.90
2009,09,21,03,57,6.90
2009,09,21,03,58,6.90
2009,09,21,03,59,6.90
2009,09,21,04,00,6.90
2009,09,21,04,01,6.90
2009,09,21,04,02,6.90
2009,09,21,04,03,6.90
2009,09,21,04,04,6.90
2009,09,21,04,05,6.90
2009,09,21,04,06,6.90
2009,09,21,04,07,6.90
2009,09,21,04,08,6.90
2009,09,21,04,09,6.90
2009,09,21,04,10,6.90
2009,09,21,04,11,6.90
2009,09,21,04,12,6.90
2009,09,21,04,13,6.90
2009,09,21,04,14,6.90
2009,09,21,04,15,6.90
2009,09,21,04,16,6.90
2009,09,21,04,17,6.90
2009,09,21,04,18,6.90
2009,09,21,04,19,6.90
2009,09,21,04,20,6.90
2009,09,21,04,21,6.90
2009,09,21,04,22,6.90
2009,09,21,04,23,6.90
2009,09,21,04,24,6.90
2009,09,21,04,25,6.90
2009,09,21,04,26,6.90
2009,09,21,04,27,6.90
2009,09,21,04,28,6.80
2009,09,21,04,29,6.80
2009,09,21,04,30,6.80
2009,09,21,04,31,6.80
2009,09,21,04,32,6.80
2009,09,21,04,33,6.80
2009,09,21,04,34,6.90
2009,09,21,04,35,6.90
2009,09,21,04,36,6.90
2009,09,21,04,37,6.90
2009,09,21,04,38,6.90
2009,09,21,04,39,6.80
2009,09,21,04,40,6.80
2009,09,21,04,41,6.80
2009,09,21,04,42,6.80
2009,09,21,04,43,6.80
2009,09,21,04,44,6.80
2009,09,21,04,45,6.80
2009,09,21,04,46,6.80
2009,09,21,04,47,6.80
2009,09,21,04,48,6.80
2009,09,21,04,49,6.80
2009,09,21,04,50,6.80
2009,09,21,04,51,6.80
2009,09,21,04,52,6.80
2009,09,21,04,53,6.80
2009,09,21,04,54,6.80
2009,09,21,04,55,6.80
2009,09,21,04,56,6.80
2009,09,21,04,57,6.80
2009,09,21,04,58,6.80
2009,09,21,04,59,6.80
2009,09,21,05,00,6.70
2009,09,21,05,01,6.70
2009,09,21,05,02,6.70
2009,09,21,05,03,6.70
2009,09,21,05,04,6.70
2009,09,21,05,05,6.70
2009,09,21,05,06,6.70
2009,09,21,05,07,6.70
2009,09,21,05,08,6.70
2009,09,21,05,09,6.70
2009,09,21,05,10,6.70
2009,09,21,05,11,6.70
2009,09,21,05,12,6.70
2009,09,21,05,13,6.70
2009,09,21,05,14,6.70
2009,09,21,05,15,6.70
2009,09,21,05,16,6.70
2009,09,21,05,17,6.80
2009,09,21,05,18,6.80
2009,09,21,05,19,6.80
2009,09,21,05,20,6.80
2009,09,21,05,21,6.80
2009,09,21,05,22,6.80
2009,09,21,05,23,6.80
2009,09,21,05,24,6.80
2009,09,21,05,25,6.80
2009,09,21,05,26,6.80
2009,09,21,05,27,6.80
2009,09,21,05,28,6.80
2009,09,21,05,29,6.80
2009,09,21,05,30,6.80
2009,09,21,05,31,6.70
2009,09,21,05,32,6.70
2009,09,21,05,33,6.70
2009,09,21,05,34,6.70
2009,09,21,05,35,6.70
2009,09,21,05,36,6.70
2009,09,21,05,37,6.70
2009,09,21,05,38,6.70
2009,09,21,05,39,6.70
2009,09,21,05,40,6.70
2009,09,21,05,41,6.70
2009,09,21,05,42,6.70
2009,09,21,05,43,6.70
2009,09,21,05,44,6.70
2009,09,21,05,45,6.70
2009,09,21,05,46,6.80
2009,09,21,05,47,6.80
2009,09,21,05,48,6.80
2009,09,21,05,49,6.80
2009,09,21,05,50,6.80
2009,09,21,05,51,6.80
2009,09,21,05,52,6.80
2009,09,21,05,53,6.80
2009,09,21,05,54,6.80
2009,09,21,05,55,6.80
2009,09,21,05,56,6.80
2009,09,21,05,57,6.80
2009,09,21,05,58,6.80
2009,09,21,05,59,6.80
2009,09,21,06,00,6.80
2009,09,21,06,01,6.70
2009,09,21,06,02,6.70
2009,09,21,06,03,6.70
2009,09,21,06,04,6.70
2009,09,21,06,05,6.70
2009,09,21,06,06,6.70
2009,09,21,06,07,6.70
2009,09,21,06,08,6.70
2009,09,21,06,09,6.70
2009,09,21,06,10,6.70
2009,09,21,06,11,6.70
2009,09,21,06,12,6.70
2009,09,21,06,13,6.70
2009,09,21,06,14,6.70
2009,09,21,06,15,6.70
2009,09,21,06,16,6.70
2009,09,21,06,17,6.70
2009,09,21,06,18,6.70
2009,09,21,06,19,6.70
2009,09,21,06,20,6.70
2009,09,21,06,21,6.60
2009,09,21,06,22,6.60
2009,09,21,06,23,6.60
2009,09,21,06,24,6.60
2009,09,21,06,25,6.60
2009,09,21,06,26,6.60
2009,09,21,06,27,6.60
2009,09,21,06,28,6.60
2009,09,21,06,29,6.60
2009,09,21,06,30,6.60
2009,09,21,06,31,6.60
2009,09,21,06,32,6.60
2009,09,21,06,33,6.60
2009,09,21,06,34,6.60
2009,09,21,06,35,6.60
2009,09,21,06,36,6.60
2009,09,21,06,37,6.60
2009,09,21,06,38,6.60
2009,09,21,06,39,6.60
2009,09,21,06,40,6.60
2009,09,21,06,41,6.60
2009,09,21,06,42,6.60
2009,09,21,06,43,6.60
2009,09,21,06,44,6.60
2009,09,21,06,45,6.60
2009,09,21,06,46,6.60
2009,09,21,06,47,6.60
2009,09,21,06,48,6.60
2009,09,21,06,49,6.60
2009,09,21,06,50,6.60
2009,09,21,06,51,6.60
2009,09,21,06,52,6.60
2009,09,21,06,53,6.60
2009,09,21,06,54,6.60
2009,09,21,06,55,6.60
2009,09,21,06,56,6.60
2009,09,21,06,57,6.70
2009,09,21,06,58,6.70
2009,09,21,06,59,6.70
2009,09,21,07,00,6.70
2009,09,21,07,01,6.70
2009,09,21,07,02,6.70
2009,09,21,07,03,6.70
2009,09,21,07,04,6.70
2009,09,21,07,05,6.70
2009,09,21,07,06,6.70
2009,09,21,07,07,6.70
2009,09,21,07,08,6.70
2009,09,21,07,09,6.80
2009,09,21,07,10,6.80
2009,09,21,07,11,6.80
2009,09,21,07,12,6.80
2009,09,21,07,13,6.90
2009,09,21,07,14,6.90
2009,09,21,07,15,6.90
2009,09,21,07,16,7.00
2009,09,21,07,17,7.00
2009,09,21,07,18,7.10
2009,09,21,07,19,7.20
2009,09,21,07,20,7.20
2009,09,21,07,21,7.20
2009,09,21,07,22,7.30
2009,09,21,07,23,7.30
2009,09,21,07,24,7.30
2009,09,21,07,25,7.30
2009,09,21,07,26,7.30
2009,09,21,07,27,7.30
2009,09,21,07,28,7.30
2009,09,21,07,29,7.40
2009,09,21,07,30,7.40
2009,09,21,07,31,7.40
2009,09,21,07,32,7.50
2009,09,21,07,33,7.50
2009,09,21,07,34,7.60
2009,09,21,07,35,7.70
2009,09,21,07,36,7.70
2009,09,21,07,37,7.80
2009,09,21,07,38,7.90
2009,09,21,07,39,7.90
2009,09,21,07,40,8.00
2009,09,21,07,41,8.10
2009,09,21,07,42,8.10
2009,09,21,07,43,8.20
2009,09,21,07,44,8.30
2009,09,21,07,45,8.30
2009,09,21,07,46,8.40
2009,09,21,07,47,8.50
2009,09,21,07,48,8.60
2009,09,21,07,49,8.60
2009,09,21,07,50,8.70
2009,09,21,07,51,8.80
2009,09,21,07,52,8.80
2009,09,21,07,53,8.90
2009,09,21,07,54,9.00
2009,09,21,07,55,9.00
2009,09,21,07,56,9.10
2009,09,21,07,57,9.10
2009,09,21,07,58,9.20
2009,09,21,07,59,9.20
2009,09,21,08,00,9.30
2009,09,21,08,01,9.30
2009,09,21,08,02,9.40
2009,09,21,08,03,9.50
2009,09,21,08,04,9.50
2009,09,21,08,05,9.60
2009,09,21,08,06,9.60
2009,09,21,08,07,9.70
2009,09,21,08,08,9.80
2009,09,21,08,09,9.80
2009,09,21,08,10,9.90
2009,09,21,08,11,10.00
2009,09,21,08,12,10.10
2009,09,21,08,13,10.20
2009,09,21,08,14,10.30
2009,09,21,08,15,10.50
2009,09,21,08,16,10.60
2009,09,21,08,17,10.70
2009,09,21,08,18,10.80
2009,09,21,08,19,11.00
2009,09,21,08,20,11.10
2009,09,21,08,21,11.20
2009,09,21,08,22,11.30
2009,09,21,08,23,11.40
2009,09,21,08,24,11.50
2009,09,21,08,25,11.60
2009,09,21,08,26,11.70
2009,09,21,08,27,11.80
2009,09,21,08,28,11.90
2009,09,21,08,29,12.00
2009,09,21,08,30,12.10
2009,09,21,08,31,12.20
2009,09,21,08,32,12.40
2009,09,21,08,33,12.50
2009,09,21,08,34,12.60
2009,09,21,08,35,12.70
2009,09,21,08,36,12.80
2009,09,21,08,37,13.00
2009,09,21,08,38,13.10
2009,09,21,08,39,13.20
2009,09,21,08,40,13.30
2009,09,21,08,41,13.30
2009,09,21,08,42,13.40
2009,09,21,08,43,13.50
2009,09,21,08,44,13.60
2009,09,21,08,45,13.60
2009,09,21,08,46,13.70
2009,09,21,08,47,13.70
2009,09,21,08,48,13.80
2009,09,21,08,49,13.80
2009,09,21,08,50,13.90
2009,09,21,08,51,13.90
2009,09,21,08,52,14.00
2009,09,21,08,53,14.10
2009,09,21,08,54,14.10
2009,09,21,08,55,14.20
2009,09,21,08,56,14.20
2009,09,21,08,57,14.30
2009,09,21,08,58,14.30
2009,09,21,08,59,14.30
2009,09,21,09,00,14.40
2009,09,21,09,01,14.40
2009,09,21,09,02,14.40
2009,09,21,09,03,14.50
2009,09,21,09,04,14.50
2009,09,21,09,05,14.60
2009,09,21,09,06,14.60
2009,09,21,09,07,14.60
2009,09,21,09,08,14.70
2009,09,21,09,09,14.70
2009,09,21,09,10,14.80
2009,09,21,09,11,14.80
2009,09,21,09,12,14.90
2009,09,21,09,13,14.90
2009,09,21,09,14,15.00
2009,09,21,09,15,15.00
2009,09,21,09,16,15.00
2009,09,21,09,17,15.00
2009,09,21,09,18,15.00
2009,09,21,09,19,15.20
2009,09,21,09,20,15.20
2009,09,21,09,21,15.30
2009,09,21,09,22,15.40
2009,09,21,09,23,15.40
2009,09,21,09,24,15.50
2009,09,21,09,25,15.50
2009,09,21,09,26,15.50
2009,09,21,09,27,15.50
2009,09,21,09,28,15.50
2009,09,21,09,29,15.50
2009,09,21,09,30,15.40
2009,09,21,09,31,15.40
2009,09,21,09,32,15.40
2009,09,21,09,33,15.40
2009,09,21,09,34,15.40
2009,09,21,09,35,15.40
2009,09,21,09,36,15.40
2009,09,21,09,37,15.40
2009,09,21,09,38,15.50
2009,09,21,09,39,15.50
2009,09,21,09,40,15.50
2009,09,21,09,41,15.60
2009,09,21,09,42,15.60
2009,09,21,09,43,15.60
2009,09,21,09,44,15.60
2009,09,21,09,45,15.60
2009,09,21,09,46,15.70
2009,09,21,09,47,15.70
2009,09,21,09,48,15.60
2009,09,21,09,49,15.60
2009,09,21,09,50,15.60
2009,09,21,09,51,15.60
2009,09,21,09,52,15.60
2009,09,21,09,53,15.70
2009,09,21,09,54,15.70
2009,09,21,09,55,15.80
2009,09,21,09,56,15.80
2009,09,21,09,57,15.80
2009,09,21,09,58,15.90
2009,09,21,09,59,15.90
2009,09,21,10,00,16.00
2009,09,21,10,01,16.00
2009,09,21,10,02,16.10
2009,09,21,10,03,16.20
2009,09,21,10,04,16.20
2009,09,21,10,05,16.30
2009,09,21,10,06,16.30
2009,09,21,10,07,16.30
2009,09,21,10,08,16.30
2009,09,21,10,09,16.20
2009,09,21,10,10,16.20
2009,09,21,10,11,16.20
2009,09,21,10,12,16.30
2009,09,21,10,13,16.20
2009,09,21,10,14,16.20
2009,09,21,10,15,16.10
2009,09,21,10,16,16.10
2009,09,21,10,17,16.10
2009,09,21,10,18,16.10
2009,09,21,10,19,16.10
2009,09,21,10,20,16.10
2009,09,21,10,21,16.10
2009,09,21,10,22,16.10
2009,09,21,10,23,16.10
2009,09,21,10,24,16.20
2009,09,21,10,25,16.20
2009,09,21,10,26,16.20
2009,09,21,10,27,16.30
2009,09,21,10,28,16.30
2009,09,21,10,29,16.30
2009,09,21,10,30,16.30
2009,09,21,10,31,16.30
2009,09,21,10,32,16.40
2009,09,21,10,33,16.40
2009,09,21,10,34,16.40
2009,09,21,10,35,16.30
2009,09,21,10,36,16.30
2009,09,21,10,37,16.40
2009,09,21,10,38,16.40
2009,09,21,10,39,16.40
2009,09,21,10,40,16.40
2009,09,21,10,41,16.50
2009,09,21,10,42,16.50
2009,09,21,10,43,16.60
2009,09,21,10,44,16.60
2009,09,21,10,45,16.60
2009,09,21,10,46,16.70
2009,09,21,10,47,16.70
2009,09,21,10,48,16.70
2009,09,21,10,49,16.80
2009,09,21,10,50,16.90
2009,09,21,10,51,17.00
2009,09,21,10,52,17.10
2009,09,21,10,53,17.10
2009,09,21,10,54,17.10
2009,09,21,10,55,17.20
2009,09,21,10,56,17.20
2009,09,21,10,57,17.20
2009,09,21,10,58,17.20
2009,09,21,10,59,17.30
2009,09,21,11,00,17.40
2009,09,21,11,01,17.40
2009,09,21,11,02,17.50
2009,09,21,11,03,17.50
2009,09,21,11,04,17.60
2009,09,21,11,05,17.60
2009,09,21,11,06,17.60
2009,09,21,11,07,17.60
2009,09,21,11,08,17.60
2009,09,21,11,09,17.60
2009,09,21,11,10,17.50
2009,09,21,11,11,17.40
2009,09,21,11,12,17.40
2009,09,21,11,13,17.40
2009,09,21,11,14,17.50
2009,09,21,11,15,17.60
2009,09,21,11,16,17.60
2009,09,21,11,17,17.70
2009,09,21,11,18,17.70
2009,09,21,11,19,17.70
2009,09,21,11,20,17.80
2009,09,21,11,21,17.90
2009,09,21,11,22,18.00
2009,09,21,11,23,18.00
2009,09,21,11,24,18.10
2009,09,21,11,25,18.10
2009,09,21,11,26,18.10
2009,09,21,11,27,18.10
2009,09,21,11,28,18.10
2009,09,21,11,29,18.10
2009,09,21,11,30,18.10
2009,09,21,11,31,18.10
2009,09,21,11,32,18.20
2009,09,21,11,33,18.20
2009,09,21,11,34,18.30
2009,09,21,11,35,18.30
2009,09,21,11,36,18.40
2009,09,21,11,37,18.50
2009,09,21,11,38,18.60
2009,09,21,11,39,18.70
2009,09,21,11,40,18.70
2009,09,21,11,41,18.80
2009,09,21,11,42,18.80
2009,09,21,11,43,18.80
2009,09,21,11,44,18.60
2009,09,21,11,45,18.60
2009,09,21,11,46,18.60
2009,09,21,11,47,18.50
2009,09,21,11,48,18.50
2009,09,21,11,49,18.50
2009,09,21,11,50,18.60
2009,09,21,11,51,18.60
2009,09,21,11,52,18.60
2009,09,21,11,53,18.70
2009,09,21,11,54,18.70
2009,09,21,11,55,18.80
2009,09,21,11,56,18.90
2009,09,21,11,57,19.00
2009,09,21,11,58,19.00
2009,09,21,11,59,19.00
2009,09,21,12,00,19.00
2009,09,21,12,01,18.90
2009,09,21,12,02,18.90
2009,09,21,12,03,18.90
2009,09,21,12,04,19.00
2009,09,21,12,05,18.90
2009,09,21,12,06,18.90
2009,09,21,12,07,18.90
2009,09,21,12,08,18.90
2009,09,21,12,09,18.90
2009,09,21,12,10,19.00
2009,09,21,12,11,19.10
2009,09,21,12,12,19.20
2009,09,21,12,13,19.30
2009,09,21,12,14,19.40
2009,09,21,12,15,19.50
2009,09,21,12,16,19.50
2009,09,21,12,17,19.40
2009,09,21,12,18,19.30
2009,09,21,12,19,19.20
2009,09,21,12,20,19.10
2009,09,21,12,21,19.20
2009,09,21,12,22,19.10
2009,09,21,12,23,19.20
2009,09,21,12,24,19.20
2009,09,21,12,25,19.20
2009,09,21,12,26,19.20
2009,09,21,12,27,19.20
2009,09,21,12,28,19.30
2009,09,21,12,29,19.30
2009,09,21,12,30,19.30
2009,09,21,12,31,19.40
2009,09,21,12,32,19.40
2009,09,21,12,33,19.30
2009,09,21,12,34,19.30
2009,09,21,12,35,19.40
2009,09,21,12,36,19.40
2009,09,21,12,37,19.50
2009,09,21,12,38,19.50
2009,09,21,12,39,19.50
2009,09,21,12,40,19.40
2009,09,21,12,41,19.40
2009,09,21,12,42,19.30
2009,09,21,12,43,19.20
2009,09,21,12,44,19.20
2009,09,21,12,45,19.10
2009,09,21,12,46,19.10
2009,09,21,12,47,19.10
2009,09,21,12,48,19.10
2009,09,21,12,49,19.20
2009,09,21,12,50,19.30
2009,09,21,12,51,19.30
2009,09,21,12,52,19.40
2009,09,21,12,53,19.40
2009,09,21,12,54,19.60
2009,09,21,12,55,19.70
2009,09,21,12,56,19.70
2009,09,21,12,57,19.70
2009,09,21,12,58,19.70
2009,09,21,12,59,19.70
2009,09,21,13,00,19.70
2009,09,21,13,01,19.70
2009,09,21,13,02,19.80
2009,09,21,13,03,19.80
2009,09,21,13,04,19.90
2009,09,21,13,05,20.00
2009,09,21,13,06,20.00
2009,09,21,13,07,20.10
2009,09,21,13,08,20.10
2009,09,21,13,09,20.00
2009,09,21,13,10,19.80
2009,09,21,13,11,19.70
2009,09,21,13,12,19.60
2009,09,21,13,13,19.60
2009,09,21,13,14,19.50
2009,09,21,13,15,19.40
2009,09,21,13,16,19.40
2009,09,21,13,17,19.40
2009,09,21,13,18,19.50
2009,09,21,13,19,19.50
2009,09,21,13,20,19.50
2009,09,21,13,21,19.50
2009,09,21,13,22,19.60
2009,09,21,13,23,19.70
2009,09,21,13,24,19.70
2009,09,21,13,25,19.80
2009,09,21,13,26,20.00
2009,09,21,13,27,20.10
2009,09,21,13,28,20.20
2009,09,21,13,29,20.20
2009,09,21,13,30,20.20
2009,09,21,13,31,20.20
2009,09,21,13,32,20.20
2009,09,21,13,33,20.20
2009,09,21,13,34,20.20
2009,09,21,13,35,20.10
2009,09,21,13,36,20.00
2009,09,21,13,37,19.90
2009,09,21,13,38,19.90
2009,09,21,13,39,20.00
2009,09,21,13,40,20.10
2009,09,21,13,41,20.20
2009,09,21,13,42,20.30
2009,09,21,13,43,20.30
2009,09,21,13,44,20.30
2009,09,21,13,45,20.30
2009,09,21,13,46,20.30
2009,09,21,13,47,20.30
2009,09,21,13,48,20.30
2009,09,21,13,49,20.40
2009,09,21,13,50,20.40
2009,09,21,13,51,20.30
2009,09,21,13,52,20.30
2009,09,21,13,53,20.20
2009,09,21,13,54,20.10
2009,09,21,13,55,20.10
2009,09,21,13,56,20.20
2009,09,21,13,57,20.20
2009,09,21,13,58,20.30
2009,09,21,13,59,20.40
2009,09,21,14,00,20.40
2009,09,21,14,01,20.50
2009,09,21,14,02,20.60
2009,09,21,14,03,20.60
2009,09,21,14,04,20.60
2009,09,21,14,05,20.70
2009,09,21,14,06,20.70
2009,09,21,14,07,20.80
2009,09,21,14,08,20.80
2009,09,21,14,09,20.80
2009,09,21,14,10,20.80
2009,09,21,14,11,20.90
2009,09,21,14,12,20.90
2009,09,21,14,13,21.00
2009,09,21,14,14,21.00
2009,09,21,14,15,21.00
2009,09,21,14,16,21.00
2009,09,21,14,17,21.00
2009,09,21,14,18,21.00
2009,09,21,14,19,21.10
2009,09,21,14,20,21.10
2009,09,21,14,21,21.10
2009,09,21,14,22,21.10
2009,09,21,14,23,21.10
2009,09,21,14,24,21.00
2009,09,21,14,25,20.90
2009,09,21,14,26,20.80
2009,09,21,14,27,20.80
2009,09,21,14,28,20.80
2009,09,21,14,29,20.80
2009,09,21,14,30,20.80
2009,09,21,14,31,20.80
2009,09,21,14,32,20.90
2009,09,21,14,33,21.00
2009,09,21,14,34,20.90
2009,09,21,14,35,21.00
2009,09,21,14,36,21.00
2009,09,21,14,37,21.00
2009,09,21,14,38,21.00
2009,09,21,14,39,20.90
2009,09,21,14,40,20.90
2009,09,21,14,41,20.90
2009,09,21,14,42,20.90
2009,09,21,14,43,20.90
2009,09,21,14,44,20.90
2009,09,21,14,45,20.90
2009,09,21,14,46,20.90
2009,09,21,14,47,20.90
2009,09,21,14,48,20.90
2009,09,21,14,49,20.90
2009,09,21,14,50,21.00
2009,09,21,14,51,21.00
2009,09,21,14,52,20.90
2009,09,21,14,53,20.90
2009,09,21,14,54,20.80
2009,09,21,14,55,20.70
2009,09,21,14,56,20.60
2009,09,21,14,57,20.60
2009,09,21,14,58,20.60
2009,09,21,14,59,20.60
2009,09,21,15,00,20.50
2009,09,21,15,01,20.50
2009,09,21,15,02,20.50
2009,09,21,15,03,20.50
2009,09,21,15,04,20.60
2009,09,21,15,05,20.80
2009,09,21,15,06,20.90
2009,09,21,15,07,21.00
2009,09,21,15,08,21.00
2009,09,21,15,09,21.00
2009,09,21,15,10,21.00
2009,09,21,15,11,21.00
2009,09,21,15,12,21.00
2009,09,21,15,13,21.00
2009,09,21,15,14,21.00
2009,09,21,15,15,21.00
2009,09,21,15,16,21.10
2009,09,21,15,17,21.10
2009,09,21,15,18,21.20
2009,09,21,15,19,21.20
2009,09,21,15,20,21.20
2009,09,21,15,21,21.30
2009,09,21,15,22,21.30
2009,09,21,15,23,21.30
2009,09,21,15,24,21.30
2009,09,21,15,25,21.30
2009,09,21,15,26,21.20
2009,09,21,15,27,21.10
2009,09,21,15,28,21.10
2009,09,21,15,29,21.10
2009,09,21,15,30,21.10
2009,09,21,15,31,21.10
2009,09,21,15,32,21.10
2009,09,21,15,33,21.10
2009,09,21,15,34,21.20
2009,09,21,15,35,21.20
2009,09,21,15,36,21.20
2009,09,21,15,37,21.10
2009,09,21,15,38,21.10
2009,09,21,15,39,21.10
2009,09,21,15,40,21.20
2009,09,21,15,41,21.20
2009,09,21,15,42,21.30
2009,09,21,15,43,21.40
2009,09,21,15,44,21.40
2009,09,21,15,45,21.40
2009,09,21,15,46,21.40
2009,09,21,15,47,21.40
2009,09,21,15,48,21.30
2009,09,21,15,49,21.30
2009,09,21,15,50,21.40
2009,09,21,15,51,21.30
2009,09,21,15,52,21.30
2009,09,21,15,53,21.30
2009,09,21,15,54,21.20
2009,09,21,15,55,21.20
2009,09,21,15,56,21.30
2009,09,21,15,57,21.30
2009,09,21,15,58,21.40
2009,09,21,15,59,21.50
2009,09,21,16,00,21.60
2009,09,21,16,01,21.60
2009,09,21,16,02,21.60
2009,09,21,16,03,21.60
2009,09,21,16,04,21.60
2009,09,21,16,05,21.60
2009,09,21,16,06,21.60
2009,09,21,16,07,21.70
2009,09,21,16,08,21.70
2009,09,21,16,09,21.70
2009,09,21,16,10,21.70
2009,09,21,16,11,21.80
2009,09,21,16,12,21.80
2009,09,21,16,13,21.80
2009,09,21,16,14,21.90
2009,09,21,16,15,21.90
2009,09,21,16,16,21.90
2009,09,21,16,17,22.00
2009,09,21,16,18,22.00
2009,09,21,16,19,22.00
2009,09,21,16,20,22.10
2009,09,21,16,21,22.00
2009,09,21,16,22,21.90
2009,09,21,16,23,21.80
2009,09,21,16,24,21.80
2009,09,21,16,25,21.80
2009,09,21,16,26,21.70
2009,09,21,16,27,21.70
2009,09,21,16,28,21.70
2009,09,21,16,29,21.80
2009,09,21,16,30,21.80
2009,09,21,16,31,21.80
2009,09,21,16,32,21.80
2009,09,21,16,33,21.80
2009,09,21,16,34,21.70
2009,09,21,16,35,21.60
2009,09,21,16,36,21.60
2009,09,21,16,37,21.60
2009,09,21,16,38,21.60
2009,09,21,16,39,21.60
2009,09,21,16,40,21.60
2009,09,21,16,41,21.60
2009,09,21,16,42,21.60
2009,09,21,16,43,21.60
2009,09,21,16,44,21.50
2009,09,21,16,45,21.40
2009,09,21,16,46,21.40
2009,09,21,16,47,21.30
2009,09,21,16,48,21.30
2009,09,21,16,49,21.30
2009,09,21,16,50,21.40
2009,09,21,16,51,21.40
2009,09,21,16,52,21.40
2009,09,21,16,53,21.40
2009,09,21,16,54,21.40
2009,09,21,16,55,21.40
2009,09,21,16,56,21.40
2009,09,21,16,57,21.50
2009,09,21,16,58,21.50
2009,09,21,16,59,21.60
2009,09,21,17,00,21.60
2009,09,21,17,01,21.60
2009,09,21,17,02,21.50
2009,09,21,17,03,21.50
2009,09,21,17,04,21.60
2009,09,21,17,05,21.60
2009,09,21,17,06,21.50
2009,09,21,17,07,21.50
2009,09,21,17,08,21.50
2009,09,21,17,09,21.50
2009,09,21,17,10,21.50
2009,09,21,17,11,21.50
2009,09,21,17,12,21.50
2009,09,21,17,13,21.50
2009,09,21,17,14,21.50
2009,09,21,17,15,21.50
2009,09,21,17,16,21.40
2009,09,21,17,17,21.40
2009,09,21,17,18,21.40
2009,09,21,17,19,21.30
2009,09,21,17,20,21.30
2009,09,21,17,21,21.30
2009,09,21,17,22,21.30
2009,09,21,17,23,21.30
2009,09,21,17,24,21.20
2009,09,21,17,25,21.20
2009,09,21,17,26,21.20
2009,09,21,17,27,21.20
2009,09,21,17,28,21.20
2009,09,21,17,29,21.20
2009,09,21,17,30,21.20
2009,09,21,17,31,21.20
2009,09,21,17,32,21.20
2009,09,21,17,33,21.20
2009,09,21,17,34,21.20
2009,09,21,17,35,21.20
2009,09,21,17,36,21.10
2009,09,21,17,37,21.10
2009,09,21,17,38,21.10
2009,09,21,17,39,21.00
2009,09,21,17,40,20.90
2009,09,21,17,41,20.90
2009,09,21,17,42,20.90
2009,09,21,17,43,20.90
2009,09,21,17,44,20.80
2009,09,21,17,45,20.80